VK6ADF Weather Reports


Display with metric or nautical units.
time (UTC)temp
F
wind
direction
speed
MPH
gust
MPH
rain 1hr
in
rain 24hr
in
rain mn
in
humidity
%
barometer
mb
20260506001615 59 325 4.0 8.0 0.00 0.00 0.00 63 1026.2
20260505234948 56 21 2.0 4.0 0.00 0.00 0.00 66 1025.8
20260505233032 55 180 1.0 2.0 0.00 0.00 0.00 66 1025.5
20260505231556 55 209 0.0 2.0 0.00 0.00 0.00 65 1025.3
20260505230033 56 185 1.0 4.0 0.00 0.00 0.00 64 1025.1
20260505223226 56 325 4.0 6.0 0.00 0.00 0.00 64 1024.9
20260505221530 56 326 3.0 7.0 0.00 0.00 0.00 63 1024.7
20260505220449 57 339 5.0 9.0 0.00 0.00 0.00 63 1024.5
20260505214915 57 71 4.0 9.0 0.00 0.00 0.00 63 1024.3
20260505213414 57 328 5.0 10.0 0.00 0.00 0.00 62 1024.1
20260505211939 57 340 4.0 8.0 0.00 0.00 0.00 62 1024.0
20260505210225 57 158 3.0 9.0 0.00 0.00 0.00 62 1024.0
20260505204529 57 323 3.0 8.0 0.00 0.00 0.00 61 1023.9
20260505203131 57 221 4.0 6.0 0.00 0.00 0.00 61 1023.9
20260505201538 58 331 2.0 4.0 0.00 0.00 0.00 60 1023.9
20260505200202 58 174 3.0 7.0 0.00 0.00 0.00 60 1023.9
20260505194910 58 337 3.0 5.0 0.00 0.00 0.00 60 1023.8
20260505193113 58 295 3.0 5.0 0.00 0.00 0.00 59 1023.7
20260505190030 60 349 3.0 8.0 0.00 0.00 0.00 58 1023.6
20260505184532 60 149 4.0 8.0 0.00 0.00 0.00 58 1023.6
20260505183543 60 319 3.0 6.0 0.00 0.00 0.00 58 1023.5
20260505181648 60 130 3.0 9.0 0.00 0.00 0.00 57 1023.7
20260505180454 60 333 4.0 10.0 0.00 0.00 0.00 57 1023.5
20260505173028 57 158 0.0 1.0 0.00 0.00 0.00 60 1023.7
20260505171528 58 0 0.0 1.0 0.00 0.00 0.00 59 1023.7
20260505170030 58 158 0.0 2.0 0.00 0.00 0.00 59 1023.7
20260505164545 57 161 1.0 4.0 0.00 0.00 0.00 61 1023.7
20260505163028 56 162 0.0 4.0 0.00 0.00 0.00 63 1023.6
20260505161535 54 163 0.0 0.0 0.00 0.00 0.00 68 1023.7
20260505153029 53 0 0.0 0.0 0.00 0.00 0.00 72 1023.7
20260505151531 54 0 0.0 0.0 0.00 0.00 0.00 72 1023.7
20260505124536 61 0 0.0 0.0 0.00 0.00 0.00 72 1023.5
20260505123032 61 0 0.0 0.0 0.00 0.00 0.00 72 1023.3
20260505121533 62 0 0.0 0.0 0.00 0.00 0.00 71 1023.2
20260505120103 62 0 0.0 0.0 0.00 0.00 0.00 70 1023.0
20260505114534 63 0 0.0 0.0 0.00 0.00 0.00 70 1022.9
20260505113027 64 0 0.0 0.0 0.00 0.00 0.00 69 1022.8
20260505111529 64 0 0.0 0.0 0.00 0.00 0.00 69 1022.7
20260505101529 68 153 1.0 4.0 0.00 0.00 0.00 71 1022.0
20260505041719 81 336 3.0 8.0 0.00 0.00 0.00 34 1022.7
20260505040410 80 318 4.0 11.0 0.00 0.00 0.00 35 1022.9
20260505034532 79 339 6.0 9.0 0.00 0.00 0.00 36 1023.1
20260505033027 78 290 3.0 13.0 0.00 0.00 0.00 38 1023.1
20260505031530 78 228 5.0 10.0 0.00 0.00 0.00 37 1023.2
20260505030030 77 169 4.0 10.0 0.00 0.00 0.00 39 1023.4
20260505024530 76 304 4.0 13.0 0.00 0.00 0.00 41 1023.6
20260505023029 75 331 6.0 11.0 0.00 0.00 0.00 43 1023.5
20260505021535 74 319 7.0 14.0 0.00 0.00 0.00 45 1023.7
20260505020250 72 332 5.0 10.0 0.00 0.00 0.00 47 1024.1
20260505014722 70 315 5.0 10.0 0.00 0.00 0.00 50 1024.2
20260505014539 70 315 5.0 10.0 0.00 0.00 0.00 50 1024.2
20260505013029 69 328 4.0 10.0 0.00 0.00 0.00 52 1024.3
20260505011552 68 303 5.0 10.0 0.00 0.00 0.00 53 1024.3
20260505010105 66 257 4.0 11.0 0.00 0.00 0.00 56 1024.3
20260505004528 64 338 5.0 11.0 0.00 0.00 0.00 59 1024.5
20260505003128 61 339 4.0 7.0 0.00 0.00 0.00 62 1024.2
20260505003038 61 339 4.0 7.0 0.00 0.00 0.00 62 1024.2